Station HRRH1 - Lono Circle, He'eia Reserve, HI Image indicating link to RSS feed of recent meteorological observations for station HRRH1


Conditions at HRRH1 as of
(6:30 am HST)
1630 GMT on 08/31/2026:
     

Click on the graph icon in the table below to see a time series plot of the last five days of that observation.

5-day plot - Wind Direction Wind Direction (WDIR): NE ( 40 deg true )
5-day plot - Wind Speed Wind Speed (WSPD): 5.1 kts
5-day plot - Atmospheric Pressure Atmospheric Pressure (PRES):29.97 in
5-day plot - Air Temperature Air Temperature (ATMP): 77.5 °F
5-day plot - Dew Point Dew Point (DEWP): 73.0 °F
5-day plot - Heat Index Heat Index (HEAT): 79.5 °F
5-day plot -  Wind Speed, Wind Gust and Atmospheric Pressure Combined plot of Wind Speed, Gust, and Air Pressure
Previous observations
TIME
(HST)
5-day plot - Wind Direction
WDIR
 
5-day plot - Wind Speed
WSPD
kts
5-day plot - Wind Gust
GST
kts
5-day plot - Wave Height
WVHT
ft
5-day plot - Dominant Wave Period
DPD
sec
5-day plot - Average Wave Period
APD
sec
5-day plot - Mean Wave Direction
MWD
 
5-day plot - Atmospheric Pressure
PRES
in
5-day plot - Pressure Tendency
PTDY
in
5-day plot - Air Temperature
ATMP
°F
5-day plot - Water Temperature
WTMP
°F
5-day plot - Dew Point
DEWP
°F
5-day plot - Salinity
SAL
psu
5-day plot - Visibility
VIS
nmi
5-day plot - Tide (above MLLW)
TIDE
ft
2026-08-31 06:15 am NE 5.1-----29.97- 77.5- 72.9---
2026-08-31 06:00 am NE 4.1-----29.97+0.00 77.4- 73.0---
2026-08-31 05:45 am NE 4.1-----29.97- 77.4- 73.0---
2026-08-31 05:30 am NE 4.1-----29.97- 77.2- 72.9---
2026-08-31 05:15 am NE 4.1-----29.97- 77.4- 72.0---
2026-08-31 05:00 am NE 4.1-----29.97-0.03 77.2- 72.9---
2026-08-31 04:45 am NE 4.1-----29.97- 77.2- 73.0---
2026-08-31 04:30 am NE 4.1-----29.97- 77.2- 73.0---
2026-08-31 04:15 am NE 5.1-----29.97- 77.4- 73.2---
2026-08-31 04:00 am NE 5.1-----29.97-0.03 77.5- 73.4---
2026-08-31 03:45 am NE 5.1-----29.97- 77.5- 73.4---
2026-08-31 03:30 am NE 4.1-----29.97- 76.8- 74.3---
2026-08-31 03:15 amENE 2.9-----29.97- 75.9- 74.5---
2026-08-31 03:00 am NE 2.9-----29.97-0.06 74.8- 74.3---
2026-08-31 02:45 am- 0.0-----29.97- 74.1- 73.8---
2026-08-31 02:30 am E 1.9-----30.00- 75.2- 73.0---
2026-08-31 02:15 amENE 4.1-----30.00- 75.6- 74.7---
2026-08-31 02:00 amENE 1.9-----30.00-0.03 74.7- 74.1---
2026-08-31 01:45 am NE 5.1-----30.00- 75.4- 74.8---
2026-08-31 01:30 amENE 5.1-----30.00- 78.3- 73.6---
2026-08-31 01:15 amENE 5.1-----30.00- 78.3- 73.2---
2026-08-31 01:00 am NE 5.1-----30.00-0.03 78.3- 72.9---
2026-08-31 12:45 am NE 5.1-----30.03- 78.4- 73.4---
2026-08-31 12:30 amENE 5.1-----30.03- 78.6- 72.5---
2026-08-31 12:15 amENE 5.1-----30.03- 77.9- 72.5---
2026-08-31 12:00 amENE 2.9-----30.03+0.00 76.8- 75.0---
2026-08-30 11:45 pmENE 5.1-----30.03- 76.6- 74.8---
2026-08-30 11:30 pm NE 4.1-----30.03- 77.0- 73.2---
2026-08-30 11:15 pm NE 2.9-----30.03- 76.5- 73.0---
2026-08-30 11:00 pmENE 5.1-----30.03+0.03 75.9- 74.5---
2026-08-30 10:45 pmENE 5.1-----30.03- 76.3- 75.0---
2026-08-30 10:30 pmENE 5.1-----30.03- 76.8- 75.6---
2026-08-30 10:15 pm NE 4.1-----30.03- 77.5- 74.1---
2026-08-30 10:00 pm NE 4.1-----30.03+0.03 77.4- 74.7---
2026-08-30 09:45 pm NE 5.1-----30.03- 77.0- 74.5---
2026-08-30 09:30 pm NE 4.1-----30.03- 76.8- 75.4---
2026-08-30 09:15 pmENE 4.1-----30.03- 76.5- 75.0---
2026-08-30 09:00 pm E 2.9-----30.03+0.06 75.9- 75.4---
2026-08-30 08:45 pmENE 5.1-----30.03- 76.1- 75.6---
2026-08-30 08:30 pm NE 5.1-----30.00- 78.1- 75.4---
2026-08-30 08:15 pm NE 5.1-----30.00- 78.4- 75.4---
2026-08-30 08:00 pm NE 4.1-----30.00+0.03 78.3- 75.6---
2026-08-30 07:45 pmNNE 2.9-----30.00- 77.9- 76.1---
2026-08-30 07:30 pmNNE 4.1-----30.00- 77.9- 76.1---
2026-08-30 07:15 pmNNE 5.1-----30.00- 77.9- 75.2---
2026-08-30 07:00 pmNNE 2.9-----30.00+0.03 76.8- 75.9---
2026-08-30 06:45 pmNNE 5.1-----30.00- 76.8- 75.6---
2026-08-30 06:30 pmNNE 5.1-----29.97- 77.9- 75.2---
2026-08-30 06:15 pmNNE 5.1-----29.97- 77.9- 75.7---
2026-08-30 06:00 pmNNE 5.1-----29.97+0.00 78.1- 75.0---
2026-08-30 05:45 pmNNE 5.1-----29.97- 78.4- 75.9---
2026-08-30 05:30 pmNNE 4.1-----29.97- 79.9- 75.4---
2026-08-30 05:15 pmNNE 5.1-----29.97- 79.5- 75.4---
2026-08-30 05:00 pmNNE 5.1-----29.97-0.03 79.5- 75.7---
2026-08-30 04:45 pm N 5.1-----29.97- 80.1- 75.6---
2026-08-30 04:30 pm N 4.1-----29.97- 80.4- 76.3---
2026-08-30 04:15 pm N 4.1-----29.97- 79.7- 75.6---
2026-08-30 04:00 pmNNE 5.1-----29.97-0.06 79.7- 75.9---
2026-08-30 03:45 pmNNE 4.1-----29.97- 80.2- 75.4---
2026-08-30 03:30 pmNNE 4.1-----29.97- 80.4- 74.8---
2026-08-30 03:15 pmNNE 5.1-----29.97- 80.6- 74.3---
2026-08-30 03:00 pm NE 5.1-----29.97-0.06 81.0- 74.7---
2026-08-30 02:45 pmNNE 5.1-----29.97- 80.6- 74.7---
2026-08-30 02:30 pmNNE 4.1-----30.00- 80.6- 75.7---
2026-08-30 02:15 pmNNE 5.1-----30.00- 80.4- 75.9---
2026-08-30 02:00 pmNNE 4.1-----30.00-0.03 80.2- 75.7---
2026-08-30 01:45 pmNNE 4.1-----30.00- 80.4- 75.6---
2026-08-30 01:30 pm N 4.1-----30.00- 80.1- 75.6---
2026-08-30 01:15 pmNNE 5.1-----30.00- 80.1- 75.9---
2026-08-30 01:00 pmNNE 4.1-----30.03+0.00 80.8- 75.6---
2026-08-30 12:45 pmENE 4.1-----30.03- 80.1- 75.2---
2026-08-30 12:30 pmENE 4.1-----30.03- 79.9- 77.0---
2026-08-30 12:15 pm NE 4.1-----30.03- 79.5- 76.8---
2026-08-30 12:00 pmNNE 5.1-----30.03+0.00 80.1- 76.6---
2026-08-30 11:45 amNNE 5.1-----30.03- 79.0- 76.8---
2026-08-30 11:30 amENE 2.9-----30.03- 77.5- 76.1---
2026-08-30 11:15 amNNE 2.9-----30.03- 77.5- 75.7---
2026-08-30 11:00 amNNE 4.1-----30.03+0.00 77.7- 75.6---
2026-08-30 10:45 am N 4.1-----30.03- 79.3- 75.2---
2026-08-30 10:30 am N 4.1-----30.03- 79.0- 75.2---
2026-08-30 10:15 am N 4.1-----30.03- 79.2- 75.0---
2026-08-30 10:00 am N 5.1-----30.03+0.03 79.7- 74.3---
2026-08-30 09:45 am N 5.1-----30.03- 79.3- 73.6---
2026-08-30 09:30 amNNE 6.0-----30.03- 79.0- 72.9---
2026-08-30 09:15 am NE 6.0-----30.03- 78.6- 74.1---
2026-08-30 09:00 am NE 4.1-----30.03+0.03 79.0- 73.9---
2026-08-30 08:45 am NE 5.1-----30.03- 79.2- 73.8---
2026-08-30 08:30 am NE 5.1-----30.03- 78.8- 73.9---
2026-08-30 08:15 amNNE 4.1-----30.03- 78.1- 75.0---
2026-08-30 08:00 amNNE 4.1-----30.03+0.06 77.9- 74.5---
2026-08-30 07:45 am NE 2.9-----30.00- 78.3- 73.8---
2026-08-30 07:30 am NE 4.1-----30.00- 78.1- 73.0---
2026-08-30 07:15 amNNE 4.1-----30.00- 78.3- 73.8---
2026-08-30 07:00 amNNE 4.1-----30.00+0.03 78.3- 73.8---